Flag for France Weather past 2 weeks in Gustavia, Saint Barthélemy, France

Now
81 °F

Scattered clouds.


Feels Like: 83 °F
Forecast: 77 / 81 °F
Wind: 18 mph from East

Location: Juliana Airport - Saint Maarten

Current Time: Mar 5, 2015 at 3:30:57 PM

Latest Report: Mar 5, 2015 at 3:00 PM


Visibility: N/A

Pressure: 30.04 "Hg

Humidity: 62%

Dew point: 66 °F

Location of GustaviaLocation

Historic Weather in Gustavia — Graph

°F

Gustavia temperature yesterday

Maximum temperature yesterday: 82 °F (at 1:00 PM)
Minimum temperature yesterday: 75 °F (at 2:00 AM)
Average temperature yesterday: 78 °F

Past Weeks' High & Low Weather Summary

 TemperatureHumidityPressure
High84 °F (Feb 19, 2:00 PM)89% (Feb 19, 7:00 AM)30.15 "Hg (Feb 19, 7:00 AM)
Low75 °F (Feb 19, 7:00 AM)55% (Feb 19, 2:00 PM)29.95 "Hg (Feb 19, 3:00 PM)
Average79 °F69%30.05 "Hg
* Reported Feb 18 2:00 PM — Mar 5 2:00 PM, Gustavia, Weather by CustomWeather, © 2015

Note: Actual official high and low records may vary slightly from our data, if they occured in-between our weather recording intervals... More about our weather records

Advertising

Gustavia weather history for previous 24 hours

 ConditionsComfort  
Time TempWeatherWind HumidityBarometerVisibility
2:00 PM
Thu, Mar 5
79 °FPartly sunny.22 mph70%30.07 "HgN/A
1:00 PM82 °FPassing clouds.18 mph55%30.09 "HgN/A
12:00 PM81 °FPartly sunny.17 mph62%30.12 "HgN/A
11:00 AM81 °FScattered showers. Partly sunny.17 mph58%30.12 "HgN/A
10:00 AM81 °FPassing clouds.17 mph58%30.12 "HgN/A
9:00 AM81 °FScattered clouds.16 mph58%30.12 "HgN/A
8:00 AM79 °FPassing clouds.17 mph58%30.09 "HgN/A
7:00 AM77 °FPassing clouds.16 mph61%30.09 "HgN/A
6:00 AM77 °FPassing clouds.17 mph65%30.07 "HgN/A
5:00 AM77 °FPassing clouds.16 mph69%30.04 "HgN/A
2:00 AM77 °FSprinkles. Passing clouds.22 mph65%30.07 "HgN/A
1:00 AM77 °FPassing clouds.20 mph65%30.09 "HgN/A
12:00 AM77 °FPassing clouds.16 mph65%30.09 "HgN/A
11:00 PM
Wed, Mar 4
77 °FPassing clouds.17 mph65%30.12 "HgN/A
10:00 PM77 °FPassing clouds.18 mph65%30.12 "HgN/A
9:00 PM77 °FPassing clouds.15 mph69%30.09 "HgN/A
8:00 PM77 °FPassing clouds.16 mph69%30.09 "HgN/A
7:00 PM79 °FPassing clouds.20 mph61%30.07 "HgN/A
6:00 PM79 °FScattered showers. Scattered clouds.18 mph65%30.07 "HgN/A
5:00 PM79 °FScattered clouds.21 mph65%30.04 "HgN/A
4:00 PM81 °FScattered showers. Scattered clouds.20 mph58%30.04 "HgN/A
3:00 PM81 °FScattered showers. Partly sunny.22 mph62%30.07 "HgN/A
Weather by CustomWeather, © 2015

See weather overviewHow to use our weather pages